Wind_Speed
36 38 43 46 49 50 52 51 44 37 31 28 27 24 23 25 26 28 28 27 31 37 34 30 31 34 38 41 41 40 38 33 32 34 35 32 33 34 31 30 28 26 30 35 37 37 37 35 30 28 27 28 29 30 28 27 26 25 25 26 27 26 26 26 26 25 24 22 21 20 20 19 21 21 20 18 18 18 19 20 20 19 18 16 15
41 38 40 43 46 44 44 45 40 33 29 25 22 17 15 15 20 29 34 33 36 37 34 33 35 39 43 43 41 39 35 33 35 38 37 34 35 33 31 31 27 25 29 32 32 33 34 31 27 26 26 28 29 28 28 27 27 27 28 29 28 26 26 26 25 25 23 21 20 21 20 20 21 22 20 19 18 19 20 21 21 21 20 19 17
53 51 46 43 41 36 34 34 32 28 26 23 18 10 9 13 19 32 38 35 34 36 36 36 37 41 42 41 39 36 35 37 40 39 35 33 33 34 34 33 30 28 29 31 32 34 33 28 26 27 30 31 30 29 30 30 28 28 30 29 26 26 26 25 24 24 23 21 21 21 21 21 22 23 22 21 21 22 23 23 23 22 21 21 21
57 60 55 46 41 36 30 25 23 22 21 19 10 3 7 15 25 37 37 32 33 37 40 41 40 40 39 38 36 35 36 39 39 37 36 35 36 38 37 34 33 33 31 32 34 35 33 31 29 31 31 30 29 29 30 31 30 30 29 27 26 27 27 25 23 23 22 22 22 22 21 22 23 23 22 23 24 24 24 25 24 23 23 24 24
54 58 59 54 50 42 29 21 21 20 19 14 3 2 11 20 29 34 32 32 38 42 44 44 42 41 40 39 38 36 37 38 37 35 35 35 36 38 37 35 36 37 34 33 34 35 35 35 33 33 31 29 28 28 29 30 30 31 31 30 29 28 27 25 23 22 21 22 22 22 21 22 23 23 22 23 23 24 24 25 25 25 25 25 25
52 53 55 57 56 46 27 21 24 22 17 11 8 11 21 31 36 33 31 37 43 46 47 46 45 44 42 40 38 38 39 40 40 37 33 31 32 33 34 35 36 37 35 33 34 36 38 38 36 35 32 29 27 26 26 27 28 30 32 31 29 27 26 25 23 21 22 22 22 22 22 22 23 22 22 23 24 25 26 27 27 27 27 26 26
52 52 50 51 54 49 33 24 27 25 17 15 14 21 29 38 44 43 43 48 49 50 47 45 45 42 41 40 38 37 39 41 42 38 33 31 33 32 30 31 33 34 34 33 36 39 41 40 37 32 27 25 24 23 24 25 26 28 28 26 24 24 25 24 22 22 22 22 21 22 23 23 22 22 22 24 26 26 26 27 27 28 30 30 29
50 51 48 46 48 49 42 32 31 27 21 20 25 35 40 43 47 49 52 53 53 52 48 46 43 38 35 34 35 38 37 39 41 38 35 35 36 33 30 29 30 34 35 33 36 40 40 38 32 26 22 22 21 21 21 23 24 24 23 21 21 23 24 24 22 22 22 23 22 22 23 23 22 23 24 24 25 26 27 28 29 30 32 32 31
49 49 47 45 44 44 39 35 34 30 28 30 35 43 48 50 50 52 55 54 53 52 50 47 43 37 34 32 36 40 38 38 40 38 38 39 37 35 35 34 32 36 37 35 36 37 34 30 25 21 20 19 19 18 19 20 21 21 19 19 20 22 23 23 22 21 22 23 23 24 25 24 24 24 26 26 26 27 29 30 31 32 33 34 34
47 47 46 43 42 40 33 31 34 36 37 37 38 41 47 52 54 56 58 57 54 52 49 48 47 46 43 41 43 44 41 41 40 39 40 41 38 37 37 36 34 34 35 35 35 30 26 22 18 16 15 14 15 15 16 17 18 19 18 18 20 21 23 23 22 21 21 22 23 23 25 26 26 26 27 27 27 29 30 31 32 33 34 34 34
42 41 45 43 39 36 30 28 32 39 41 36 36 39 45 51 56 58 59 58 56 54 52 50 52 52 51 49 48 46 44 44 42 40 40 40 38 36 35 35 34 34 33 34 30 23 19 18 15 14 13 13 13 13 14 15 16 16 17 18 19 21 24 24 23 21 21 23 24 23 24 25 27 27 28 28 29 30 32 33 34 34 35 36 35
35 34 40 38 33 32 32 33 35 40 41 36 35 38 46 52 56 59 60 59 57 54 54 55 56 55 54 52 49 45 44 44 42 41 40 40 38 35 34 35 36 36 34 31 27 21 18 17 16 15 15 14 14 14 15 16 16 16 17 18 19 21 24 25 24 23 23 25 26 26 26 28 29 29 29 29 29 30 32 33 35 36 36 36 35
28 30 34 31 27 29 35 40 41 43 42 38 36 40 50 54 56 58 59 61 60 56 56 59 59 56 55 53 49 45 44 44 43 42 41 41 39 36 35 36 38 38 36 31 27 23 20 18 18 17 17 16 16 17 17 17 18 18 17 18 20 22 24 25 26 25 24 26 28 30 31 33 33 32 31 30 30 30 31 33 36 37 36 35 36
24 28 29 26 26 29 36 41 42 44 42 40 40 46 56 57 55 57 59 62 63 59 58 60 59 56 55 53 49 45 44 44 43 43 43 42 40 36 35 37 38 39 37 33 31 28 24 20 19 19 19 18 18 19 18 17 18 18 17 18 20 22 24 25 25 24 24 26 29 32 34 36 35 32 32 31 30 31 32 34 36 36 36 36 37
23 24 23 23 26 29 33 37 38 39 41 45 49 53 60 61 59 58 59 60 61 59 58 60 58 55 53 52 50 46 44 44 44 44 43 42 40 38 37 38 39 40 38 35 34 31 26 22 20 21 21 19 19 19 19 18 18 18 18 18 19 21 22 23 22 23 24 26 29 33 35 37 36 33 32 31 31 32 34 35 37 37 38 38 37
25 23 21 24 28 29 26 27 29 32 38 47 55 58 59 61 63 61 58 56 57 57 57 59 58 54 51 50 49 46 45 45 45 45 44 42 41 42 41 39 39 39 38 36 35 31 26 24 23 22 21 20 20 21 20 21 21 21 21 21 20 21 21 22 23 24 25 26 28 33 37 38 37 34 31 31 32 34 35 36 37 38 38 37 38
33 32 30 32 34 29 24 26 28 30 39 50 59 61 58 58 63 63 59 55 54 56 58 59 60 56 51 49 47 46 46 45 45 45 44 43 43 44 42 40 40 40 38 37 36 32 28 26 25 23 22 22 23 23 23 24 24 24 24 23 23 22 23 25 26 28 29 28 28 31 36 39 38 34 33 33 34 36 36 36 36 38 39 39 40
39 43 43 44 43 37 34 38 39 39 46 53 58 61 57 55 60 63 62 58 56 58 60 60 61 58 53 51 49 47 46 46 45 45 44 44 44 45 44 41 41 41 41 41 38 35 32 30 27 25 25 25 25 26 26 26 26 26 25 25 25 26 27 28 30 31 32 32 29 28 33 38 38 35 35 35 35 37 36 35 36 37 39 40 40
40 45 48 50 52 50 49 50 50 50 52 54 55 56 53 53 58 61 63 61 59 59 60 61 61 59 55 52 49 47 47 48 49 50 50 49 47 47 46 43 42 43 45 45 42 38 37 35 32 31 30 28 27 28 28 27 26 26 26 27 28 29 30 31 32 33 34 33 31 29 31 35 36 36 35 36 38 39 36 35 36 37 38 39 39
39 44 49 50 52 55 56 55 53 53 53 54 53 51 50 52 55 57 60 61 60 58 58 60 61 59 55 51 48 46 48 50 53 55 57 56 51 47 46 43 41 44 47 46 45 44 42 39 37 36 35 33 31 29 28 27 27 28 28 29 30 31 32 33 34 36 36 35 32 30 29 31 34 35 35 37 40 39 37 36 37 37 38 38 40
39 42 46 49 49 51 54 53 52 51 51 52 51 49 49 52 54 56 59 62 62 60 57 58 61 60 57 53 47 45 47 49 51 53 56 56 52 48 46 43 41 44 46 46 46 47 45 42 40 38 37 36 35 33 32 31 31 31 31 30 32 33 34 34 37 39 38 36 34 32 31 32 34 35 36 40 42 40 37 37 37 38 38 38 40
39 39 42 46 48 48 48 47 46 48 47 45 44 45 47 52 55 56 59 62 63 61 56 54 59 61 59 56 49 44 45 46 48 50 51 52 51 49 48 45 43 44 45 45 45 45 44 43 42 40 38 38 39 38 38 38 38 36 34 33 34 35 35 38 40 40 39 37 35 34 34 34 35 37 39 43 43 41 38 38 38 38 37 37 39
37 39 40 42 44 44 45 44 43 45 46 43 42 43 46 50 53 55 57 59 58 55 50 49 55 61 60 57 52 46 45 46 47 49 50 50 51 51 50 47 46 46 45 44 43 42 41 42 42 41 40 40 41 41 42 42 41 40 38 37 36 36 38 41 42 41 40 38 37 38 37 36 37 39 42 45 45 42 40 39 38 38 37 37 39
35 37 39 40 41 41 42 43 44 45 46 45 44 45 46 48 52 53 52 51 47 44 43 42 47 57 62 59 55 50 47 47 49 50 50 51 52 52 51 50 49 49 47 45 44 43 42 42 42 41 41 42 43 43 44 44 44 42 40 38 38 39 41 42 42 42 41 41 42 41 39 38 39 42 45 48 47 42 40 40 39 40 39 37 39
36 36 38 39 39 40 40 42 43 44 46 46 47 49 48 49 52 53 50 47 42 39 40 40 42 50 59 61 57 54 51 48 49 51 52 53 53 53 53 52 52 52 50 49 47 46 45 45 44 43 43 44 45 45 45 45 44 43 41 40 40 40 41 42 42 43 44 45 45 43 40 39 41 44 48 50 49 45 41 39 40 42 40 37 38
35 34 35 37 38 39 41 41 41 42 45 47 49 51 50 49 52 53 51 49 44 38 39 41 42 47 55 58 58 57 54 51 50 51 52 52 53 52 52 52 53 52 52 52 52 51 50 49 48 46 45 46 47 46 45 45 44 43 43 42 40 40 41 42 43 44 46 47 46 43 42 42 45 49 52 51 50 47 42 40 41 42 42 41 40
34 32 33 35 37 39 40 41 41 42 44 47 50 51 50 52 52 50 50 50 46 40 38 37 39 43 47 54 58 57 55 53 51 51 51 52 52 52 51 52 52 51 51 52 53 53 52 51 50 50 49 48 48 48 47 46 46 46 45 44 42 42 43 44 44 46 46 46 45 44 45 48 51 53 52 49 49 47 44 43 43 43 45 46 44
33 31 32 35 37 38 40 41 42 43 44 47 50 51 51 53 51 48 48 47 43 40 40 37 36 38 40 45 51 53 53 50 47 48 50 50 51 51 51 52 51 50 50 50 51 52 52 51 51 51 51 51 51 51 50 49 49 49 48 46 45 45 46 46 46 46 46 46 47 49 51 54 55 53 50 48 49 48 46 46 46 46 47 48 46
34 32 33 36 37 38 39 41 42 43 44 47 49 50 50 51 51 47 44 42 40 40 42 39 37 39 42 43 45 47 48 47 47 48 50 51 51 51 52 52 51 50 50 51 51 51 51 51 51 51 51 51 52 52 51 50 50 49 48 48 47 47 47 48 48 49 49 50 52 54 56 55 53 51 50 48 48 48 47 48 48 48 49 49 47
35 33 34 36 37 38 39 41 42 43 44 46 49 49 48 49 51 48 43 40 40 42 43 41 38 39 43 46 48 49 48 49 50 51 52 52 53 53 54 53 52 51 51 51 51 51 52 52 52 52 52 52 53 53 53 51 50 48 48 47 47 47 48 49 51 51 51 53 55 56 55 53 51 50 49 48 48 49 49 50 51 50 49 48 47
37 34 35 37 37 38 39 41 42 43 44 46 49 50 48 47 50 50 45 40 39 41 43 43 42 43 44 45 47 49 50 52 54 54 53 53 53 54 55 55 55 54 53 53 52 52 52 52 52 53 54 54 54 54 54 53 52 50 49 48 48 49 50 52 53 53 55 56 56 54 51 50 49 48 48 48 49 51 53 52 51 49 49 48 48
38 37 36 37 38 38 40 41 42 44 46 48 51 52 49 47 49 51 49 44 41 42 43 44 45 46 46 46 46 46 47 49 52 53 53 53 53 53 54 55 55 54 54 54 54 53 51 51 52 52 52 52 52 52 53 53 52 52 52 52 52 52 53 54 56 56 56 55 52 49 47 47 47 47 48 49 51 53 55 53 50 50 50 51 51
37 38 37 38 39 39 40 42 44 47 49 52 54 54 51 49 51 53 53 50 47 47 46 45 46 47 48 49 49 48 48 49 50 50 50 51 52 52 51 51 52 51 51 50 50 51 51 52 52 53 52 52 51 52 52 53 54 55 55 55 56 56 56 57 56 55 53 50 48 46 46 46 47 47 48 49 50 51 52 52 51 52 52 52 54
36 38 38 38 40 40 41 44 47 50 53 56 57 56 52 51 52 53 53 52 50 50 49 47 46 48 49 49 50 51 51 51 50 49 50 51 52 52 51 50 50 50 49 49 51 52 53 54 56 56 57 57 56 56 56 57 59 58 57 57 56 56 55 53 51 50 49 48 47 47 47 47 48 49 49 50 51 52 52 53 54 56 56 56 58
35 37 38 39 41 42 43 45 49 53 56 59 60 59 56 53 52 52 52 50 49 49 50 49 48 48 48 49 49 51 51 51 51 52 52 52 53 53 52 51 51 51 52 54 56 57 58 59 60 60 60 61 61 61 61 61 61 59 58 56 53 51 50 49 49 50 49 48 48 48 47 48 49 51 51 53 55 56 56 57 58 59 60 61 62
35 37 38 40 42 43 44 47 52 56 59 61 62 62 61 58 55 53 51 49 49 49 50 50 49 49 49 50 50 51 50 50 50 52 52 53 55 57 56 55 55 56 58 61 61 62 62 62 62 62 63 63 62 62 62 61 60 58 55 52 49 48 48 49 50 50 49 48 48 48 48 49 51 53 55 57 59 60 61 62 62 63 64 65 66
35 37 39 41 43 45 46 49 54 58 61 63 64 64 65 63 60 57 53 50 49 50 50 50 51 52 52 53 54 54 53 53 53 53 53 53 56 59 60 60 59 60 62 64 65 65 64 63 64 64 64 63 62 60 59 57 56 54 51 49 48 48 49 50 51 50 49 48 48 47 47 49 52 54 56 58 60 62 63 64 64 65 66 67 68
35 37 39 42 45 46 48 51 56 60 63 65 66 65 66 66 65 62 58 53 50 50 50 50 51 53 55 56 57 57 57 56 57 58 57 56 58 60 61 62 63 63 63 64 65 66 66 65 65 64 63 62 61 59 58 57 55 54 52 51 52 52 52 53 52 51 49 49 49 49 49 51 54 56 58 59 60 62 63 65 67 69 71 72 74
35 37 40 44 47 49 50 53 57 62 64 66 67 66 66 67 67 66 63 59 55 52 50 50 51 53 55 57 57 57 57 58 59 60 60 60 61 62 63 64 65 65 64 64 65 66 67 66 65 64 63 62 61 60 59 59 58 57 57 57 58 58 58 57 55 54 52 52 53 53 55 57 59 61 62 63 65 66 68 70 72 74 76 78 80
36 38 40 45 49 51 53 55 59 63 66 68 68 68 68 68 67 66 65 63 59 55 53 54 55 55 56 56 57 57 58 59 60 61 61 62 63 65 66 68 69 67 66 66 66 66 67 66 65 64 64 64 64 64 63 62 61 62 62 63 64 64 63 61 59 58 57 57 57 58 60 62 63 65 66 67 69 71 73 74 76 77 79 80 81
40 39 41 46 51 54 56 58 60 64 67 69 70 70 70 69 67 66 64 63 61 59 57 57 58 58 59 59 60 61 61 62 63 63 63 64 66 67 68 68 69 68 66 66 66 66 66 66 65 65 65 66 66 66 66 66 67 67 67 67 66 65 64 62 61 61 61 61 61 63 65 68 70 71 72 74 76 77 78 79 80 81 81 81 81
44 42 42 45 51 57 60 62 63 66 68 70 70 71 70 69 68 67 65 63 62 61 60 60 60 61 62 62 63 64 65 66 65 65 64 65 66 67 67 67 67 67 66 66 67 67 67 67 67 67 68 68 69 69 70 70 69 69 68 68 67 65 65 65 65 65 66 65 66 68 72 75 77 79 80 81 82 82 83 83 83 83 83 82 82
47 44 43 45 50 58 64 66 67 68 70 70 71 71 71 70 69 68 67 66 65 64 64 63 62 62 63 63 64 65 67 67 67 66 66 65 65 65 66 65 66 66 67 67 68 68 68 68 68 69 69 70 70 71 71 70 69 68 68 69 69 69 69 70 70 71 71 72 72 74 78 81 83 85 86 87 87 87 86 86 85 85 84 83 83
49 46 45 46 50 57 65 70 70 70 71 72 72 73 73 71 70 69 69 69 69 69 68 67 66 66 65 65 66 67 68 68 68 68 68 67 67 67 66 65 65 66 66 67 68 68 68 68 68 69 70 70 70 71 71 71 71 71 71 72 73 74 74 75 76 77 78 79 80 82 83 86 88 89 91 91 90 89 88 87 86 85 83 82 80
50 49 47 47 49 55 63 71 74 72 72 73 75 75 75 74 73 72 72 72 72 72 71 71 70 70 70 69 70 70 70 70 70 69 69 69 69 69 69 68 68 68 69 69 69 69 70 70 71 71 71 72 72 73 74 75 75 76 76 76 77 78 79 80 81 83 85 86 87 89 90 91 92 92 92 92 92 91 90 89 87 85 83 82 81
51 51 50 49 50 53 59 68 75 76 74 74 76 77 77 77 76 75 74 74 75 75 74 73 72 72 72 72 72 73 73 72 71 70 70 70 70 70 70 70 70 71 71 71 71 72 72 72 73 73 74 74 75 77 78 78 79 80 80 80 81 82 83 85 86 88 90 92 93 95 95 95 95 95 94 94 94 92 90 88 86 86 85 85 86
52 52 52 51 51 53 57 64 73 79 79 77 77 78 79 79 79 78 78 77 77 77 77 75 74 73 73 73 74 75 75 75 74 72 70 69 70 70 70 71 71 71 71 72 72 73 73 73 74 75 75 76 78 80 81 81 82 83 84 84 85 86 88 89 91 92 94 96 97 98 98 97 97 97 96 95 94 91 89 87 87 87 87 88 89
55 55 54 54 53 54 56 60 67 76 81 81 79 79 80 81 81 82 82 81 81 81 80 79 77 76 76 75 76 76 77 77 78 76 74 73 73 73 74 74 74 74 75 75 76 76 77 77 78 79 79 80 82 84 85 86 86 87 88 89 90 91 92 94 95 96 97 98 99 99 99 99 99 97 95 93 91 89 88 88 89 89 91 92 93
58 58 57 57 56 56 57 59 63 71 79 84 83 81 81 82 83 84 85 85 85 84 84 83 82 81 80 79 79 79 78 78 78 79 78 78 78 78 79 79 79 80 80 80 81 82 82 83 84 84 85 86 87 88 89 90 91 91 92 93 94 96 97 98 99 100 100 100 100 100 100 100 99 96 94 92 90 90 90 91 92 94 95 97 98
61 61 61 60 60 59 59 59 61 66 74 82 86 86 84 83 84 85 87 88 89 89 88 88 87 86 85 84 84 84 82 81 81 81 81 82 82 82 83 83 84 84 85 85 86 86 87 88 88 89 89 90 91 91 92 94 95 96 97 98 100 101 101 102 102 102 101 101 101 101 99 98 96 94 92 91 92 93 94 96 97 99 101 102 104
64 64 64 63 63 63 62 62 62 64 69 76 84 89 89 87 86 87 88 89 91 92 93 93 92 92 91 90 90 89 88 87 87 86 86 86 86 86 86 87 87 87 88 88 89 89 90 90 91 92 93 94 95 96 97 99 100 101 102 103 103 104 103 103 102 102 102 101 100 99 97 95 94 94 94 94 95 96 97 99 101 103 105 107 108
Wind_Direction
250 258 259 258 255 252 252 252 255 263 268 272 274 272 261 252 258 263 256 246 243 247 251 248 240 237 241 247 251 254 255 255 253 249 252 256 256 258 255 254 262 262 259 264 267 266 268 271 272 273 273 273 274 272 270 268 265 265 265 261 261 266 275 285 286 282 280 274 267 264 262 261 266 273 278 282 283 283 285 285 284 287 287 280 267
241 248 251 255 258 259 257 249 249 257 261 264 268 272 272 256 251 256 253 242 239 248 255 252 246 244 245 248 250 251 251 249 246 249 256 261 262 260 256 256 252 242 248 257 262 266 270 270 272 277 278 277 275 269 265 263 262 263 262 260 260 264 275 283 282 279 276 271 269 267 260 258 266 274 276 276 277 281 286 288 285 285 284 283 280
236 240 243 248 252 259 263 251 244 251 255 257 267 276 263 245 238 245 249 247 246 251 254 250 248 248 249 250 251 249 245 244 245 249 255 258 259 259 261 257 243 233 241 251 259 265 268 270 276 285 288 281 272 265 261 260 259 259 258 256 257 265 276 280 277 274 271 270 270 264 257 258 265 271 277 280 278 281 287 287 284 284 283 281 283
236 239 242 243 244 252 260 248 236 247 250 249 269 312 231 231 235 244 250 250 247 246 246 247 246 247 248 249 249 245 243 244 247 250 252 254 256 258 260 253 238 233 237 247 257 262 265 269 277 289 291 281 270 263 260 259 254 252 251 250 256 266 275 275 270 268 266 266 267 263 259 261 266 271 278 282 281 283 288 288 286 284 283 284 285
240 238 238 239 244 250 249 234 230 241 240 234 228 145 212 221 231 241 245 244 244 243 240 240 242 243 245 246 244 242 241 242 244 249 254 256 257 255 254 248 239 235 236 244 253 258 264 269 277 289 290 279 269 262 259 257 251 247 246 249 257 265 271 271 264 262 261 260 262 263 261 263 266 271 277 280 281 283 286 288 287 285 286 287 285
244 241 238 238 243 247 242 223 221 226 219 193 160 191 217 223 226 227 228 232 238 241 238 236 238 240 242 244 243 240 240 239 241 249 257 258 254 252 252 248 240 234 233 239 249 257 262 267 278 288 285 276 269 262 257 254 250 248 247 250 255 261 266 266 259 256 257 259 261 262 262 264 267 272 275 277 278 282 284 285 285 286 289 287 282
246 245 242 239 239 240 237 219 213 215 196 169 187 215 222 227 227 221 220 225 229 234 236 235 237 239 240 243 243 240 239 239 241 247 251 249 249 250 249 245 237 231 233 241 249 254 259 268 279 283 277 272 268 260 253 251 250 249 247 247 251 257 261 259 255 253 254 259 264 264 265 267 269 271 273 275 279 282 283 283 285 289 291 287 282
249 249 245 241 238 238 235 222 213 209 190 188 214 224 223 226 228 225 224 225 227 230 233 233 235 235 235 239 243 242 239 239 240 242 243 243 245 244 238 236 234 233 237 243 249 254 261 271 277 273 269 269 265 258 252 249 247 246 244 244 248 254 256 254 253 252 252 259 267 268 267 269 270 271 274 279 283 284 284 284 286 288 290 289 286
250 249 247 244 240 238 234 220 212 206 198 204 216 223 225 225 227 229 230 229 227 228 230 233 234 233 231 230 235 239 240 239 238 240 241 240 242 241 237 241 242 238 239 243 249 257 265 269 268 267 268 266 260 255 250 246 243 242 241 242 246 251 252 250 251 253 255 260 267 268 265 267 270 274 277 282 284 285 285 286 286 289 291 291 290
249 246 246 244 239 239 231 212 208 206 202 206 215 225 230 228 227 229 231 231 230 229 230 232 232 231 230 229 231 236 238 237 235 238 240 238 241 243 243 246 243 236 237 242 248 257 261 259 260 264 263 258 255 252 247 242 241 241 242 244 247 251 252 249 250 256 258 261 266 268 267 269 274 278 279 281 283 285 287 288 288 290 293 294 292
245 242 242 241 237 236 223 202 203 205 204 210 220 233 239 235 231 230 230 231 231 229 228 229 229 228 228 230 232 233 234 233 233 235 236 236 240 243 244 244 236 230 233 239 244 253 255 252 254 255 252 251 252 251 249 245 242 242 244 247 249 252 252 251 255 260 260 261 264 266 269 273 276 279 279 278 280 284 286 287 285 287 291 293 291
241 236 239 240 236 232 215 200 202 202 203 210 220 238 248 242 237 233 230 230 230 227 225 229 231 227 225 227 231 232 232 232 232 232 233 235 238 242 246 241 232 229 231 234 240 252 259 253 249 248 247 248 251 252 252 247 244 244 246 250 252 253 253 255 262 266 263 262 262 263 267 271 275 278 279 278 277 279 280 281 282 284 287 289 287
231 228 234 233 229 222 204 196 199 198 199 208 218 237 246 241 238 234 229 229 230 227 225 229 234 231 226 225 228 231 231 232 233 231 232 235 236 242 243 235 230 230 231 233 239 254 264 256 250 249 246 251 254 253 252 248 247 247 248 251 253 254 256 259 265 268 265 262 261 262 265 270 276 278 278 278 277 277 279 281 283 284 286 286 283
218 218 223 221 217 211 197 192 195 197 203 213 220 233 239 235 233 231 226 226 228 227 226 231 234 233 230 226 225 229 230 230 232 231 233 234 234 239 236 230 231 233 237 240 242 254 262 254 252 251 248 255 258 254 253 250 247 248 249 253 253 253 256 259 263 267 268 266 263 262 264 269 276 276 276 278 278 278 281 284 285 284 285 286 283
207 208 213 215 205 194 189 190 195 202 211 219 222 230 234 230 227 227 225 224 225 225 226 230 232 233 231 226 225 228 229 227 229 230 232 232 231 233 232 233 237 239 244 245 244 253 255 248 253 253 249 256 258 254 253 249 248 251 255 257 256 256 255 258 263 271 277 274 267 264 265 269 273 275 277 279 280 283 285 285 285 284 285 286 285
193 196 213 222 208 193 193 200 208 219 226 229 229 231 232 228 225 225 225 224 224 224 225 227 229 231 231 227 225 227 228 227 229 231 233 233 230 231 234 238 240 241 245 243 244 248 244 243 253 252 250 256 257 254 254 252 252 256 260 263 262 259 258 262 269 277 287 287 274 265 264 268 272 274 276 277 283 291 290 287 286 285 285 285 284
198 196 203 210 206 200 206 215 221 230 235 236 235 234 232 228 226 224 223 223 223 223 225 226 227 230 232 230 227 227 228 230 232 234 236 236 233 232 235 239 240 241 241 238 241 242 239 243 251 250 252 255 254 255 256 256 258 261 264 265 265 264 265 271 276 280 289 296 287 270 264 267 270 272 273 276 288 298 295 289 286 283 283 283 284
217 208 203 201 201 202 205 210 214 221 230 234 234 234 233 229 227 225 222 222 222 224 226 225 226 230 233 232 230 230 231 233 234 236 238 240 238 236 237 239 240 241 239 236 238 241 240 243 247 248 251 254 254 254 255 256 259 261 265 267 268 269 271 275 279 283 291 297 295 281 270 268 269 271 273 276 289 298 295 288 284 281 281 282 282
229 221 215 210 209 210 209 209 214 218 225 230 232 234 232 227 227 225 222 221 222 224 226 224 226 231 233 231 230 233 236 237 238 240 242 245 245 241 239 240 240 239 239 238 239 241 242 244 248 249 251 253 254 252 252 255 258 262 267 270 270 270 272 275 278 286 293 295 295 287 276 271 270 272 272 276 289 296 292 286 281 279 281 280 278
235 228 224 221 217 217 216 215 219 222 226 230 232 233 230 225 225 225 222 220 220 222 225 225 226 230 231 230 231 237 242 242 241 242 244 245 245 242 240 240 240 239 240 242 242 242 243 247 252 254 253 253 253 253 253 254 259 265 269 270 269 270 273 276 280 287 292 293 292 287 281 275 273 273 272 276 289 294 290 284 279 278 282 281 278
238 232 228 226 223 222 222 221 222 223 225 228 229 226 222 219 221 222 220 218 217 219 224 226 227 229 231 230 234 240 241 241 242 241 241 242 242 240 239 239 238 237 240 243 243 243 244 248 253 256 256 254 254 255 255 258 264 269 270 270 270 272 273 276 282 288 289 291 290 287 285 280 275 274 272 277 290 294 289 284 280 280 283 284 280
240 238 232 228 226 226 226 224 221 220 220 221 221 218 216 215 216 218 218 217 218 219 222 226 227 228 230 231 235 240 241 241 242 241 239 239 239 240 240 240 239 237 239 242 244 244 246 249 254 256 256 256 256 257 259 263 268 271 272 273 273 273 274 277 282 286 287 289 289 288 288 282 276 274 272 279 291 293 288 284 280 280 283 282 279
241 239 236 231 227 226 227 226 222 219 218 217 216 215 216 215 214 215 216 218 221 222 222 225 225 226 228 231 236 242 243 242 243 242 241 240 241 241 240 241 240 239 241 244 247 248 250 253 255 255 255 256 257 258 260 264 267 269 272 274 273 273 274 278 282 283 285 289 289 289 288 281 276 273 272 281 291 291 287 283 277 278 282 281 277
239 235 234 233 230 227 227 226 225 222 219 217 216 215 216 214 211 211 212 215 219 219 217 220 225 227 227 230 237 242 242 242 244 243 242 242 242 242 241 241 242 243 245 249 252 253 254 255 255 255 256 256 256 258 260 262 266 269 271 272 272 274 276 279 282 283 286 289 290 290 287 279 274 272 275 284 290 289 287 281 275 279 284 281 275
238 236 233 232 230 227 224 222 222 221 218 215 214 214 214 213 209 208 208 208 209 211 212 215 224 229 229 230 236 240 240 240 243 244 245 245 246 246 245 245 246 247 250 254 257 258 258 258 258 257 256 255 257 259 261 263 266 269 271 273 275 276 278 280 282 284 287 289 290 289 284 276 273 274 280 286 288 288 287 280 277 281 284 283 278
240 239 235 231 227 223 220 218 217 216 214 211 211 211 211 209 208 207 206 206 208 210 211 215 224 231 231 232 236 239 240 240 241 244 246 248 250 251 250 250 250 250 252 256 259 261 261 261 260 259 257 257 258 260 262 264 267 270 273 275 275 275 277 279 281 283 286 287 287 285 280 276 276 280 284 286 287 289 287 283 281 283 285 286 284
241 240 235 229 223 219 216 214 213 212 210 208 209 210 209 207 207 206 206 209 211 211 209 214 225 232 234 236 237 239 242 243 242 243 245 247 249 250 251 252 253 254 255 257 259 260 261 261 261 262 261 260 260 262 264 266 268 271 273 274 273 272 275 277 279 281 282 282 282 281 279 279 282 284 284 284 285 288 287 285 286 287 287 288 287
239 237 233 226 221 216 213 211 210 208 207 207 207 207 207 206 204 203 206 209 211 211 211 214 221 225 228 233 236 238 241 242 241 241 242 243 246 248 251 254 256 257 257 258 258 259 260 261 262 263 263 263 263 265 267 268 271 273 275 276 275 274 275 276 277 277 277 277 278 280 281 283 284 283 282 282 285 286 287 287 289 290 290 289 287
238 234 231 225 219 214 211 209 207 206 206 205 204 205 205 205 202 201 204 204 204 207 210 212 218 221 221 225 230 235 237 238 239 240 240 241 245 248 251 253 255 257 258 259 260 261 262 262 263 263 264 265 266 268 269 271 274 276 277 277 277 277 277 276 276 276 276 276 278 280 281 282 282 281 282 284 285 286 288 289 291 292 291 289 288
237 232 229 225 219 213 210 207 206 205 204 202 202 202 201 200 200 198 197 197 201 207 210 211 216 221 224 226 230 233 236 238 240 241 242 244 246 248 250 252 254 256 258 260 261 262 263 262 262 263 264 266 267 268 270 271 273 275 276 277 277 277 276 276 276 275 275 276 277 279 280 281 282 283 285 286 286 287 289 291 291 290 288 287 287
236 231 228 224 218 212 209 207 205 203 202 200 200 200 199 199 199 197 195 198 205 209 211 212 216 221 226 229 232 234 236 238 240 242 244 246 246 248 250 251 253 255 257 259 261 262 262 262 262 263 264 266 267 269 270 271 273 274 275 276 276 276 275 274 274 274 275 276 278 280 281 283 285 285 286 287 287 287 289 290 290 289 288 288 289
235 230 227 223 218 212 208 206 204 202 200 199 198 198 198 199 200 199 200 204 209 211 212 214 217 223 227 229 229 232 236 238 240 241 243 244 244 246 247 249 252 254 257 259 260 261 260 260 261 262 264 266 268 270 272 273 273 274 274 275 275 274 273 273 274 275 277 279 281 282 283 285 285 285 286 286 285 284 287 289 290 290 289 289 290
232 229 226 222 218 212 208 206 203 201 199 198 197 194 194 198 201 203 205 208 212 215 216 217 220 225 229 230 230 233 236 239 241 241 241 240 241 243 246 249 250 252 253 254 255 256 257 259 261 263 264 265 267 269 271 273 274 274 274 274 274 273 274 275 277 280 282 283 283 285 286 287 287 287 288 287 286 286 288 291 292 292 292 292 291
230 227 225 222 218 212 208 206 203 201 200 199 196 193 194 198 201 204 206 208 213 217 218 220 224 227 230 231 232 233 235 237 238 239 239 240 242 243 246 248 248 248 247 246 247 250 254 258 262 263 263 265 266 268 271 273 275 276 276 276 276 276 277 278 280 282 284 285 286 288 289 289 290 290 291 291 291 292 292 292 293 293 293 293 292
229 227 224 222 218 213 209 206 204 202 202 200 196 195 196 199 201 203 205 208 212 217 218 220 224 227 229 230 230 230 232 234 236 238 240 242 244 245 246 248 247 246 244 245 247 250 255 259 262 264 265 266 268 269 271 274 275 277 277 278 278 279 279 281 283 284 285 286 288 289 290 290 290 290 292 293 294 294 293 292 293 292 292 292 291
229 227 223 221 219 214 209 207 204 203 203 203 200 198 199 201 203 204 206 210 214 218 220 222 224 226 229 230 229 229 231 236 240 242 244 247 248 247 247 248 249 248 248 249 251 254 257 260 263 265 268 270 272 273 274 275 277 277 278 278 278 278 280 281 281 282 282 284 286 287 288 289 290 290 292 293 292 290 289 289 289 289 289 289 288
230 227 223 220 219 215 211 207 205 205 206 206 205 202 202 204 206 207 208 211 216 220 224 227 229 230 232 233 233 234 237 243 246 247 249 252 253 252 251 251 252 252 253 255 256 257 259 262 265 267 270 272 273 274 275 276 276 276 276 275 276 277 278 279 280 280 281 283 284 286 287 287 287 287 287 287 286 285 284 284 284 284 284 284 284
231 228 224 220 218 216 213 209 207 207 207 208 209 207 206 207 209 211 211 212 216 220 225 230 233 235 235 237 238 241 244 248 251 252 252 254 256 256 256 255 255 255 257 258 260 261 263 265 267 269 271 272 273 274 274 275 274 273 272 273 275 278 280 282 282 280 278 279 280 280 280 279 279 279 279 279 280 281 281 281 282 282 281 281 282
232 229 225 221 218 216 214 211 208 208 209 210 211 211 211 211 212 214 215 216 217 220 224 228 233 236 236 237 240 243 246 249 252 253 254 255 256 257 256 256 256 257 259 261 263 264 266 267 269 271 272 272 272 272 272 272 272 272 273 274 276 280 283 284 281 277 275 276 277 277 277 276 276 276 278 279 280 282 282 282 281 282 282 282 283
233 230 227 222 218 216 214 212 210 209 210 211 212 213 214 214 214 216 217 219 221 223 225 229 232 235 238 238 239 241 243 245 246 248 250 251 253 254 255 256 257 259 261 263 265 267 268 269 270 271 271 271 272 272 272 271 271 272 273 275 277 279 281 281 279 277 277 277 277 278 278 278 279 280 281 282 284 284 284 284 284 284 285 285 285
234 231 228 223 218 215 213 212 211 211 211 212 212 214 215 215 216 217 218 220 222 223 226 228 231 234 236 237 236 237 238 240 242 244 246 248 250 252 254 256 258 260 262 263 265 266 267 268 269 269 269 270 270 271 272 273 274 275 275 276 278 279 279 279 279 278 278 278 278 278 278 280 282 284 285 286 287 287 288 288 288 289 289 289 288
234 231 228 225 220 215 212 211 211 211 212 213 213 214 215 216 216 217 217 218 220 222 225 228 230 232 234 236 237 238 239 240 242 244 246 248 251 253 255 256 258 260 261 262 263 264 265 266 266 266 266 267 267 268 270 272 274 276 276 277 278 278 278 278 278 278 278 278 278 278 279 282 285 286 287 289 290 290 291 292 292 293 293 292 291
234 231 228 226 222 216 211 210 210 211 212 214 214 215 215 215 216 217 217 217 218 221 224 228 230 232 234 236 238 240 240 242 243 244 246 248 250 253 255 256 258 259 260 260 261 261 261 262 262 263 265 267 268 270 271 272 273 274 275 276 277 277 278 278 278 279 279 279 279 279 281 284 286 288 289 291 292 293 294 295 295 295 294 293 292
235 232 229 227 224 219 213 211 211 212 213 215 216 216 217 216 216 217 218 218 219 220 224 227 230 232 234 236 239 241 242 243 244 245 247 249 250 252 254 255 256 257 258 258 258 258 258 260 262 264 266 267 268 269 270 270 271 272 273 274 275 276 277 278 279 279 280 281 282 283 284 286 288 289 291 293 295 295 296 295 295 294 293 292 292
237 233 230 228 227 223 217 213 213 214 215 216 217 218 218 218 217 217 218 219 220 221 223 226 229 232 235 237 239 241 243 244 246 247 248 250 251 253 253 254 255 255 256 256 257 258 259 261 263 264 265 266 267 267 267 269 270 271 273 274 275 276 277 278 279 280 281 283 284 286 287 288 290 291 293 295 295 296 296 296 295 295 295 295 295
237 235 232 229 228 226 222 218 215 215 217 218 219 220 220 220 219 219 220 220 221 222 224 226 229 232 234 236 238 240 242 243 245 247 249 251 252 253 253 254 254 255 256 257 258 259 260 262 262 263 263 264 265 266 267 268 270 271 273 274 275 276 277 278 279 281 283 284 286 288 289 291 292 294 295 296 296 297 297 297 297 297 297 297 296
237 235 233 231 228 228 227 223 219 217 218 219 220 221 222 222 222 222 222 222 222 223 224 226 228 231 233 235 236 238 239 241 242 244 246 248 250 251 252 252 253 254 255 256 257 258 259 260 260 261 261 262 264 265 267 269 270 271 272 273 275 276 277 279 281 282 284 286 288 290 291 292 294 295 296 296 297 297 296 295 295 295 294 294 294
238 236 234 231 229 228 228 227 223 221 220 220 221 222 223 224 224 224 224 225 225 225 226 227 229 231 233 234 235 237 238 239 241 242 243 244 246 248 249 250 251 252 253 254 255 256 257 257 258 260 261 262 264 266 268 269 270 271 273 274 275 277 278 280 282 284 285 287 289 290 292 293 294 294 295 295 295 294 293 293 292 291 291 291 290
238 237 235 232 230 229 227 227 227 224 222 222 222 223 224 225 225 226 226 227 227 227 228 229 230 231 233 235 236 237 238 239 240 242 243 244 245 247 248 249 250 251 252 253 254 255 256 257 259 260 262 263 264 266 268 270 271 272 274 275 277 278 280 281 283 284 286 287 289 290 291 293 293 294 294 293 292 291 291 291 290 290 290 290 290
238 237 236 234 232 230 228 227 227 227 225 224 224 224 225 226 227 228 228 229 230 230 231 231 232 232 233 235 236 238 239 240 241 242 244 245 246 248 249 250 251 252 253 254 255 256 257 259 260 261 263 264 265 266 268 270 272 273 275 276 278 279 281 282 284 285 287 288 289 291 291 292 292 292 291 290 290 289 288 288 288 288 289 289 290
237 237 237 235 234 232 230 228 227 227 227 226 226 226 226 227 228 229 230 231 232 232 233 234 235 235 236 236 238 239 240 241 242 244 245 246 248 249 250 251 252 253 254 255 256 257 259 260 261 263 264 265 267 268 270 271 273 275 277 278 280 281 282 284 285 286 288 289 290 290 290 290 290 290 289 288 288 287 287 287 287 288 288 289 290
Height
10683 10683 10684 10687 10690 10696 10701 10707 10714 10717 10718 10719 10720 10724 10731 10732 10728 10725 10726 10727 10725 10725 10731 10736 10734 10730 10723 10721 10724 10726 10729 10734 10734 10732 10733 10736 10735 10736 10739 10740 10740 10738 10732 10730 10731 10732 10732 10732 10731 10731 10730 10729 10728 10727 10727 10727 10728 10728 10730 10731 10732 10731 10730 10728 10727 10725 10725 10724 10723 10723 10722 10720 10718 10717 10718 10717 10716 10715 10713 10712 10711 10711 10710 10709 10708
10678 10675 10674 10678 10684 10691 10697 10704 10711 10714 10715 10717 10719 10725 10731 10733 10731 10724 10719 10719 10719 10722 10727 10729 10726 10723 10719 10719 10723 10725 10728 10730 10729 10728 10731 10732 10730 10732 10733 10734 10735 10733 10729 10728 10729 10729 10729 10729 10729 10729 10728 10727 10725 10725 10725 10725 10725 10726 10727 10729 10729 10729 10728 10727 10726 10724 10723 10722 10721 10720 10719 10718 10716 10714 10715 10715 10714 10712 10711 10710 10709 10709 10709 10708 10707
10671 10667 10668 10672 10676 10686 10694 10700 10707 10710 10713 10715 10719 10727 10733 10735 10731 10719 10713 10717 10720 10720 10720 10718 10717 10715 10715 10718 10720 10722 10724 10723 10723 10725 10727 10726 10725 10727 10728 10729 10730 10727 10726 10726 10727 10727 10727 10726 10727 10727 10726 10724 10723 10723 10722 10722 10723 10724 10725 10726 10727 10727 10726 10726 10724 10722 10721 10720 10719 10718 10717 10716 10715 10713 10713 10713 10712 10710 10709 10708 10708 10708 10707 10706 10706
10664 10663 10667 10670 10672 10681 10691 10698 10704 10707 10710 10713 10719 10728 10733 10733 10726 10713 10713 10719 10717 10713 10709 10708 10709 10710 10712 10714 10715 10717 10719 10718 10719 10720 10721 10721 10720 10721 10722 10724 10725 10724 10723 10724 10725 10725 10724 10724 10724 10724 10723 10722 10721 10720 10720 10720 10721 10721 10722 10723 10724 10724 10724 10724 10723 10721 10720 10718 10717 10716 10716 10715 10713 10712 10712 10710 10709 10708 10707 10707 10706 10706 10705 10704 10704
10658 10659 10664 10668 10670 10679 10690 10697 10701 10703 10706 10712 10720 10726 10728 10727 10718 10712 10715 10714 10707 10703 10701 10701 10704 10705 10707 10709 10710 10713 10714 10714 10714 10714 10715 10716 10716 10716 10716 10718 10719 10720 10720 10721 10722 10722 10722 10722 10722 10721 10720 10719 10718 10718 10718 10718 10718 10719 10720 10721 10721 10721 10721 10721 10721 10720 10718 10716 10715 10715 10714 10713 10712 10711 10711 10709 10707 10706 10706 10705 10704 10704 10703 10703 10702
10651 10655 10660 10664 10668 10676 10687 10694 10696 10698 10702 10708 10715 10718 10717 10714 10708 10707 10707 10700 10693 10690 10692 10695 10697 10699 10702 10703 10705 10707 10708 10709 10709 10710 10712 10713 10712 10712 10712 10713 10715 10716 10717 10718 10719 10719 10719 10719 10719 10719 10718 10717 10716 10716 10716 10716 10716 10717 10718 10718 10719 10719 10719 10719 10719 10718 10717 10715 10714 10714 10713 10712 10711 10710 10709 10708 10706 10705 10705 10704 10704 10703 10702 10701 10700
10645 10649 10655 10659 10664 10672 10682 10690 10692 10693 10698 10704 10708 10709 10705 10699 10696 10696 10691 10684 10680 10680 10685 10690 10690 10693 10697 10697 10699 10701 10703 10705 10705 10707 10709 10709 10709 10710 10710 10710 10710 10711 10713 10715 10715 10715 10716 10717 10718 10717 10716 10715 10714 10714 10714 10714 10714 10714 10715 10716 10716 10717 10717 10717 10717 10717 10716 10714 10713 10712 10711 10710 10709 10708 10707 10706 10705 10704 10704 10703 10702 10701 10700 10699 10698
10640 10643 10649 10655 10660 10667 10676 10683 10686 10689 10694 10697 10698 10695 10691 10687 10686 10686 10682 10678 10678 10679 10683 10685 10684 10689 10693 10693 10694 10695 10698 10700 10702 10704 10705 10705 10706 10706 10706 10706 10707 10707 10708 10710 10711 10712 10714 10715 10715 10714 10713 10712 10712 10712 10712 10712 10712 10712 10713 10714 10714 10714 10715 10715 10715 10715 10714 10713 10711 10710 10710 10709 10708 10707 10705 10704 10703 10702 10702 10701 10700 10699 10698 10697 10696
10634 10636 10643 10650 10655 10660 10667 10674 10679 10683 10685 10683 10681 10679 10677 10678 10678 10679 10677 10676 10678 10680 10682 10683 10684 10687 10689 10690 10690 10690 10693 10696 10697 10700 10700 10701 10702 10702 10703 10703 10702 10703 10704 10706 10708 10709 10711 10712 10712 10710 10710 10709 10709 10709 10709 10710 10710 10710 10711 10711 10712 10712 10713 10713 10713 10713 10712 10711 10710 10709 10708 10707 10707 10706 10704 10702 10701 10700 10699 10699 10698 10697 10696 10694 10693
10625 10630 10636 10643 10648 10653 10659 10667 10672 10674 10673 10670 10670 10668 10667 10668 10669 10670 10671 10672 10677 10680 10681 10682 10681 10682 10683 10684 10685 10686 10688 10690 10693 10695 10696 10697 10698 10699 10699 10698 10698 10698 10700 10703 10705 10707 10708 10708 10708 10707 10707 10706 10707 10707 10708 10708 10708 10708 10709 10709 10710 10710 10711 10711 10711 10711 10711 10709 10708 10707 10706 10705 10705 10704 10703 10701 10699 10698 10697 10696 10695 10694 10693 10692 10691
10618 10625 10628 10633 10641 10647 10654 10661 10665 10666 10665 10665 10666 10662 10659 10662 10663 10664 10667 10671 10675 10678 10678 10677 10674 10675 10677 10679 10680 10682 10684 10686 10689 10691 10692 10693 10695 10695 10694 10694 10694 10695 10696 10699 10702 10704 10704 10704 10704 10704 10704 10704 10705 10705 10706 10706 10706 10706 10707 10707 10708 10708 10708 10708 10708 10709 10708 10707 10707 10706 10705 10704 10703 10702 10701 10699 10698 10696 10695 10694 10693 10691 10690 10689 10688
10614 10620 10621 10626 10636 10641 10646 10652 10655 10658 10659 10660 10662 10658 10654 10657 10659 10661 10666 10670 10671 10674 10675 10672 10669 10670 10672 10674 10676 10679 10681 10682 10684 10686 10688 10689 10690 10691 10691 10691 10691 10691 10692 10696 10698 10700 10700 10701 10701 10701 10702 10702 10702 10703 10704 10704 10704 10704 10704 10705 10705 10706 10706 10705 10705 10705 10706 10705 10704 10704 10703 10702 10701 10700 10699 10697 10696 10694 10693 10692 10690 10689 10688 10687 10686
10610 10613 10615 10621 10628 10631 10636 10640 10643 10648 10651 10652 10656 10653 10647 10649 10653 10657 10662 10665 10666 10670 10672 10668 10665 10668 10671 10672 10674 10676 10678 10679 10680 10682 10683 10685 10686 10687 10687 10687 10686 10686 10689 10693 10695 10696 10697 10697 10697 10698 10699 10699 10700 10700 10701 10701 10702 10702 10702 10702 10703 10703 10704 10703 10702 10702 10702 10702 10702 10701 10700 10699 10698 10698 10696 10694 10693 10692 10691 10689 10688 10687 10686 10685 10684
10604 10606 10610 10617 10622 10626 10631 10635 10637 10641 10643 10641 10643 10641 10639 10644 10648 10650 10655 10658 10662 10667 10669 10666 10664 10668 10672 10673 10673 10674 10675 10676 10677 10678 10679 10681 10683 10683 10683 10683 10683 10683 10686 10690 10692 10692 10693 10694 10694 10695 10695 10696 10696 10697 10697 10698 10698 10699 10700 10700 10700 10700 10701 10700 10700 10699 10698 10698 10698 10698 10697 10695 10695 10694 10693 10691 10690 10689 10688 10686 10685 10684 10682 10681 10680
10599 10602 10606 10612 10618 10624 10630 10635 10635 10635 10634 10631 10631 10630 10632 10639 10643 10645 10649 10654 10659 10664 10666 10664 10663 10665 10669 10671 10672 10672 10673 10673 10674 10674 10675 10677 10679 10679 10679 10679 10680 10681 10683 10686 10688 10688 10690 10691 10691 10692 10692 10692 10692 10693 10694 10694 10695 10696 10696 10697 10697 10697 10697 10697 10697 10696 10695 10695 10695 10695 10693 10691 10691 10690 10689 10688 10687 10686 10685 10683 10681 10680 10679 10678 10676
10598 10601 10605 10611 10616 10622 10627 10630 10631 10631 10630 10628 10627 10628 10631 10636 10639 10642 10647 10652 10657 10662 10663 10662 10660 10661 10664 10668 10670 10670 10670 10670 10671 10672 10672 10674 10675 10675 10675 10676 10676 10677 10680 10682 10683 10684 10686 10687 10687 10688 10688 10688 10688 10689 10690 10690 10691 10692 10693 10693 10694 10694 10694 10694 10694 10693 10692 10692 10691 10691 10690 10688 10687 10687 10686 10685 10683 10683 10681 10679 10678 10676 10675 10674 10673
10594 10597 10602 10608 10613 10617 10621 10625 10627 10629 10627 10623 10622 10625 10630 10634 10637 10640 10645 10650 10655 10657 10658 10658 10657 10658 10661 10664 10667 10667 10666 10667 10668 10669 10669 10670 10671 10672 10672 10672 10673 10674 10675 10677 10678 10679 10681 10683 10683 10684 10684 10685 10685 10686 10686 10687 10687 10688 10689 10689 10690 10690 10690 10690 10690 10689 10688 10688 10687 10687 10686 10684 10683 10684 10684 10681 10680 10679 10677 10675 10673 10672 10671 10670 10669
10589 10590 10594 10600 10605 10608 10613 10617 10619 10622 10619 10615 10615 10620 10626 10630 10633 10636 10640 10645 10649 10650 10652 10654 10654 10655 10658 10661 10663 10662 10662 10663 10665 10665 10665 10666 10668 10668 10668 10668 10669 10670 10670 10671 10673 10675 10677 10679 10679 10680 10680 10681 10682 10682 10683 10683 10684 10684 10685 10685 10686 10686 10686 10686 10686 10685 10684 10684 10683 10683 10682 10680 10679 10680 10680 10678 10677 10676 10674 10672 10670 10668 10667 10667 10665
10581 10584 10587 10592 10596 10598 10602 10606 10609 10612 10611 10610 10612 10616 10621 10625 10627 10629 10634 10638 10641 10643 10646 10649 10650 10652 10655 10658 10659 10658 10658 10659 10660 10661 10662 10663 10664 10664 10664 10664 10664 10664 10664 10666 10669 10671 10673 10674 10675 10675 10677 10678 10678 10679 10679 10680 10680 10681 10681 10681 10681 10682 10682 10682 10681 10681 10680 10679 10679 10679 10678 10676 10675 10676 10676 10674 10673 10671 10669 10668 10666 10665 10664 10663 10661
10574 10577 10580 10585 10589 10592 10594 10598 10602 10605 10606 10606 10609 10613 10616 10619 10621 10624 10628 10632 10635 10638 10642 10646 10647 10649 10652 10654 10654 10654 10655 10655 10656 10656 10657 10658 10659 10660 10659 10659 10660 10659 10659 10662 10665 10667 10669 10670 10670 10671 10673 10674 10674 10674 10675 10675 10676 10677 10677 10677 10677 10677 10677 10678 10677 10676 10675 10675 10675 10674 10674 10673 10672 10672 10672 10670 10669 10667 10665 10663 10662 10660 10660 10659 10658
10567 10570 10574 10578 10582 10585 10588 10592 10595 10597 10598 10598 10601 10604 10607 10610 10612 10614 10617 10620 10624 10631 10637 10642 10644 10646 10648 10650 10651 10650 10651 10651 10650 10650 10652 10654 10655 10655 10654 10654 10654 10654 10655 10657 10659 10661 10664 10665 10666 10668 10669 10670 10670 10670 10671 10671 10672 10672 10673 10673 10673 10673 10673 10673 10672 10672 10671 10670 10670 10670 10670 10669 10668 10668 10667 10665 10664 10663 10660 10658 10656 10655 10655 10655 10654
10561 10564 10568 10572 10576 10579 10582 10586 10588 10588 10589 10590 10593 10596 10598 10601 10603 10605 10608 10611 10618 10626 10634 10639 10641 10642 10644 10646 10647 10646 10646 10646 10645 10645 10648 10649 10649 10648 10648 10648 10649 10650 10651 10652 10654 10657 10660 10661 10662 10664 10665 10665 10666 10666 10666 10667 10667 10668 10668 10668 10668 10668 10668 10668 10668 10667 10666 10666 10665 10665 10665 10664 10664 10663 10662 10660 10659 10658 10656 10654 10652 10651 10651 10651 10649
10556 10558 10561 10564 10569 10572 10574 10577 10580 10581 10583 10586 10588 10591 10593 10596 10599 10604 10609 10615 10620 10626 10632 10636 10636 10636 10639 10642 10642 10641 10641 10641 10640 10641 10643 10643 10642 10641 10642 10643 10644 10645 10647 10649 10651 10654 10656 10657 10658 10659 10660 10661 10661 10662 10662 10662 10662 10663 10663 10663 10663 10663 10663 10663 10662 10662 10661 10661 10660 10660 10660 10660 10659 10658 10657 10655 10654 10653 10651 10650 10648 10647 10646 10646 10644
10552 10553 10555 10559 10562 10564 10567 10570 10573 10575 10578 10581 10584 10586 10589 10593 10597 10603 10610 10616 10618 10621 10626 10630 10630 10630 10633 10636 10635 10635 10636 10636 10635 10636 10638 10637 10635 10635 10636 10638 10639 10641 10643 10645 10647 10649 10651 10652 10653 10654 10655 10655 10656 10656 10657 10657 10657 10658 10658 10658 10659 10658 10658 10658 10657 10656 10655 10656 10655 10655 10655 10655 10653 10652 10651 10650 10649 10648 10646 10645 10643 10642 10641 10641 10639
10547 10549 10551 10554 10556 10558 10561 10564 10567 10569 10572 10576 10579 10582 10585 10589 10594 10600 10607 10610 10612 10615 10619 10622 10623 10623 10626 10629 10629 10630 10631 10632 10631 10631 10631 10632 10631 10630 10632 10633 10635 10638 10640 10641 10643 10644 10645 10646 10647 10648 10649 10650 10650 10651 10652 10652 10653 10653 10653 10654 10653 10653 10653 10652 10651 10650 10649 10650 10650 10649 10649 10649 10648 10647 10645 10643 10642 10642 10641 10640 10638 10636 10635 10635 10635
10544 10546 10547 10549 10551 10553 10556 10559 10562 10564 10567 10571 10575 10578 10582 10587 10591 10597 10602 10604 10608 10613 10615 10617 10617 10617 10619 10623 10623 10624 10626 10627 10627 10625 10626 10626 10625 10626 10627 10629 10631 10634 10636 10637 10638 10639 10640 10641 10641 10643 10644 10644 10645 10646 10647 10647 10648 10648 10648 10648 10648 10648 10648 10647 10646 10644 10643 10644 10644 10643 10643 10643 10642 10641 10639 10636 10635 10635 10635 10634 10633 10631 10629 10629 10629
10540 10541 10542 10544 10546 10549 10552 10555 10557 10559 10562 10566 10571 10575 10579 10584 10589 10593 10596 10600 10605 10609 10611 10612 10612 10612 10615 10616 10617 10618 10621 10622 10622 10621 10621 10621 10620 10621 10622 10623 10626 10629 10631 10632 10632 10633 10634 10635 10636 10637 10638 10638 10639 10640 10642 10642 10643 10643 10643 10643 10643 10642 10642 10642 10641 10639 10639 10638 10638 10637 10637 10636 10636 10635 10633 10631 10629 10628 10628 10627 10626 10625 10622 10621 10622
10535 10537 10538 10540 10542 10545 10548 10551 10553 10556 10559 10563 10567 10572 10576 10580 10585 10589 10592 10597 10602 10604 10606 10607 10607 10608 10610 10610 10611 10613 10614 10616 10616 10615 10615 10615 10616 10617 10617 10618 10621 10624 10625 10626 10626 10627 10629 10630 10630 10631 10631 10632 10633 10635 10636 10637 10637 10638 10638 10638 10638 10637 10637 10637 10636 10635 10634 10634 10632 10631 10631 10631 10630 10628 10627 10626 10624 10623 10622 10620 10619 10619 10616 10613 10613
10532 10533 10534 10535 10538 10541 10544 10547 10550 10552 10556 10560 10564 10569 10573 10577 10582 10587 10590 10594 10598 10599 10601 10602 10602 10603 10605 10605 10605 10606 10608 10609 10610 10609 10609 10610 10611 10612 10612 10613 10616 10618 10618 10619 10621 10622 10623 10624 10625 10625 10625 10626 10627 10628 10630 10631 10631 10632 10632 10632 10632 10632 10631 10631 10631 10630 10630 10629 10627 10626 10626 10625 10623 10622 10621 10620 10618 10617 10616 10614 10613 10612 10610 10607 10606
10528 10529 10530 10532 10534 10537 10541 10544 10546 10549 10553 10558 10562 10566 10570 10574 10579 10583 10586 10589 10591 10592 10594 10597 10597 10598 10599 10600 10600 10600 10602 10603 10603 10603 10604 10605 10607 10607 10607 10608 10611 10612 10612 10613 10615 10616 10617 10617 10618 10619 10620 10621 10621 10622 10624 10625 10626 10627 10626 10627 10627 10627 10626 10625 10625 10625 10625 10624 10622 10621 10620 10618 10617 10616 10614 10614 10612 10611 10610 10608 10606 10605 10604 10601 10600
10523 10525 10526 10528 10530 10534 10537 10540 10544 10547 10551 10555 10558 10562 10566 10570 10574 10578 10581 10583 10584 10586 10588 10590 10592 10592 10593 10594 10594 10595 10597 10597 10597 10598 10599 10600 10601 10602 10602 10603 10604 10605 10606 10608 10609 10610 10611 10611 10613 10614 10615 10615 10615 10616 10617 10619 10621 10621 10621 10621 10622 10621 10620 10619 10619 10618 10619 10618 10617 10615 10613 10612 10610 10609 10608 10607 10606 10604 10603 10601 10600 10599 10597 10596 10594
10519 10521 10522 10524 10527 10530 10533 10537 10540 10544 10547 10551 10554 10558 10562 10565 10569 10573 10576 10578 10578 10579 10581 10584 10585 10586 10588 10589 10589 10591 10592 10591 10590 10592 10594 10595 10596 10596 10596 10597 10599 10600 10601 10602 10603 10604 10605 10606 10608 10609 10610 10610 10611 10611 10611 10612 10614 10615 10615 10616 10616 10615 10614 10613 10612 10611 10611 10611 10610 10608 10607 10606 10604 10603 10602 10601 10600 10598 10597 10595 10593 10592 10591 10590 10588
10515 10516 10518 10521 10523 10526 10530 10533 10537 10540 10543 10546 10550 10554 10557 10560 10564 10566 10569 10571 10572 10573 10576 10578 10579 10580 10582 10584 10585 10586 10587 10587 10586 10588 10589 10589 10590 10590 10591 10592 10593 10595 10596 10597 10597 10599 10600 10601 10602 10603 10604 10605 10606 10606 10606 10606 10606 10608 10609 10610 10609 10608 10607 10606 10604 10603 10603 10602 10602 10601 10601 10599 10598 10597 10596 10594 10593 10592 10590 10588 10586 10585 10584 10583 10581
10510 10512 10514 10517 10519 10522 10526 10529 10533 10536 10538 10542 10546 10549 10552 10555 10558 10561 10563 10566 10567 10568 10570 10572 10573 10574 10576 10578 10580 10581 10581 10582 10583 10583 10583 10584 10584 10585 10586 10587 10588 10589 10591 10592 10592 10594 10595 10596 10596 10597 10598 10599 10600 10601 10601 10600 10600 10601 10602 10602 10601 10600 10600 10598 10597 10595 10595 10595 10595 10594 10594 10593 10591 10590 10588 10587 10585 10584 10582 10580 10579 10577 10576 10575 10574
10506 10508 10510 10513 10515 10518 10522 10525 10528 10531 10534 10537 10541 10544 10547 10550 10553 10555 10557 10559 10560 10562 10564 10565 10566 10568 10569 10571 10573 10574 10575 10577 10577 10577 10578 10578 10578 10578 10580 10581 10582 10584 10585 10586 10587 10589 10590 10590 10590 10590 10591 10592 10593 10594 10595 10595 10594 10594 10594 10594 10593 10592 10591 10590 10589 10588 10588 10588 10588 10587 10587 10587 10584 10582 10581 10579 10578 10577 10575 10573 10572 10571 10569 10568 10566
10501 10503 10506 10508 10511 10514 10517 10520 10524 10527 10529 10533 10536 10538 10541 10544 10546 10549 10551 10553 10554 10555 10557 10558 10559 10561 10563 10565 10567 10568 10569 10570 10570 10571 10572 10571 10570 10571 10573 10575 10577 10579 10579 10579 10581 10584 10585 10584 10584 10584 10584 10585 10586 10586 10587 10587 10587 10586 10586 10586 10585 10584 10583 10583 10582 10582 10582 10582 10582 10581 10581 10580 10578 10575 10574 10573 10572 10570 10569 10568 10567 10565 10563 10561 10560
10497 10499 10501 10504 10506 10509 10512 10516 10519 10522 10525 10528 10531 10533 10535 10537 10540 10542 10544 10546 10548 10550 10551 10553 10554 10556 10557 10559 10560 10561 10563 10563 10563 10564 10565 10565 10564 10564 10566 10569 10571 10572 10572 10572 10574 10576 10578 10578 10578 10578 10578 10579 10579 10579 10579 10579 10579 10579 10579 10579 10578 10578 10577 10576 10576 10576 10576 10575 10575 10575 10574 10573 10571 10569 10568 10567 10566 10565 10565 10563 10561 10560 10558 10555 10554
10493 10495 10497 10499 10501 10504 10507 10511 10514 10517 10520 10523 10526 10528 10530 10532 10534 10536 10539 10541 10543 10545 10547 10548 10549 10550 10551 10553 10554 10555 10556 10557 10556 10557 10559 10559 10557 10556 10559 10561 10563 10564 10565 10565 10567 10568 10570 10571 10572 10572 10572 10572 10572 10572 10572 10572 10572 10572 10572 10572 10571 10571 10570 10570 10570 10570 10570 10569 10569 10569 10568 10566 10565 10563 10562 10562 10561 10560 10559 10558 10555 10553 10550 10548 10547
10488 10490 10492 10494 10496 10499 10502 10505 10508 10511 10514 10517 10520 10523 10524 10527 10529 10532 10534 10536 10538 10541 10543 10544 10544 10544 10546 10548 10550 10551 10551 10550 10550 10550 10552 10552 10550 10549 10551 10552 10554 10556 10558 10559 10560 10561 10562 10564 10565 10565 10565 10565 10565 10566 10566 10566 10565 10565 10565 10565 10564 10564 10564 10564 10564 10564 10564 10564 10564 10563 10561 10559 10557 10556 10555 10554 10554 10553 10552 10550 10548 10545 10542 10540 10538
10483 10485 10487 10489 10491 10493 10496 10499 10502 10505 10508 10511 10514 10516 10517 10521 10524 10527 10530 10532 10534 10536 10537 10538 10539 10539 10540 10543 10545 10545 10544 10544 10543 10543 10544 10545 10543 10542 10543 10544 10547 10550 10552 10553 10553 10554 10555 10556 10558 10557 10557 10557 10557 10558 10558 10558 10558 10558 10558 10558 10558 10558 10557 10557 10557 10557 10557 10558 10557 10554 10552 10550 10549 10548 10548 10547 10546 10544 10543 10540 10538 10536 10534 10531 10528
10476 10478 10481 10483 10486 10488 10491 10494 10497 10500 10502 10505 10507 10509 10511 10515 10518 10521 10524 10527 10529 10530 10531 10531 10532 10532 10533 10534 10535 10536 10535 10535 10536 10537 10537 10537 10536 10536 10538 10539 10541 10544 10547 10547 10547 10548 10548 10549 10550 10550 10549 10549 10550 10550 10550 10550 10550 10550 10549 10549 10550 10550 10549 10548 10549 10549 10549 10550 10549 10545 10541 10540 10540 10540 10540 10539 10537 10534 10532 10529 10527 10525 10523 10520 10517
10469 10472 10475 10478 10481 10483 10486 10489 10491 10494 10496 10498 10501 10503 10506 10509 10512 10514 10517 10519 10522 10523 10524 10524 10524 10525 10525 10525 10526 10527 10527 10528 10529 10531 10531 10531 10531 10532 10533 10534 10536 10538 10540 10540 10541 10541 10541 10541 10542 10542 10541 10541 10542 10543 10543 10543 10543 10542 10541 10540 10540 10541 10540 10539 10540 10540 10540 10542 10542 10537 10532 10530 10531 10530 10529 10528 10526 10523 10521 10517 10514 10511 10509 10506 10504
10462 10466 10469 10472 10475 10478 10480 10483 10486 10488 10490 10493 10495 10497 10500 10503 10506 10508 10510 10512 10514 10515 10516 10517 10518 10518 10519 10519 10519 10520 10520 10521 10523 10524 10524 10525 10526 10526 10527 10528 10530 10531 10532 10532 10533 10534 10534 10534 10534 10534 10534 10534 10534 10534 10534 10534 10534 10533 10533 10532 10531 10531 10531 10531 10531 10531 10530 10531 10532 10530 10526 10523 10521 10519 10516 10515 10513 10511 10508 10505 10502 10499 10496 10493 10491
10455 10459 10463 10466 10469 10472 10474 10477 10480 10482 10484 10487 10489 10491 10494 10497 10499 10502 10503 10505 10506 10507 10508 10509 10510 10511 10512 10512 10512 10513 10513 10514 10516 10517 10518 10519 10520 10520 10521 10522 10522 10523 10524 10525 10526 10526 10527 10527 10527 10526 10526 10526 10526 10526 10525 10524 10525 10526 10525 10524 10523 10522 10522 10521 10521 10520 10519 10519 10520 10519 10518 10515 10512 10508 10505 10503 10500 10497 10495 10492 10489 10487 10484 10481 10479
10450 10453 10457 10460 10462 10465 10468 10471 10473 10476 10478 10480 10482 10485 10488 10490 10492 10495 10496 10498 10499 10500 10500 10501 10502 10503 10504 10504 10505 10506 10507 10508 10509 10510 10510 10512 10513 10513 10514 10515 10515 10516 10516 10517 10518 10518 10519 10519 10519 10518 10517 10518 10518 10516 10515 10515 10517 10517 10516 10516 10515 10514 10513 10512 10511 10509 10507 10507 10506 10506 10505 10503 10501 10498 10494 10491 10488 10485 10482 10479 10476 10473 10470 10468 10465
10443 10446 10449 10453 10456 10458 10461 10464 10467 10469 10472 10473 10475 10478 10481 10483 10486 10487 10489 10490 10492 10492 10493 10493 10494 10495 10495 10496 10497 10498 10499 10500 10501 10502 10503 10504 10505 10505 10506 10507 10507 10508 10508 10508 10509 10510 10510 10511 10511 10510 10509 10510 10508 10505 10505 10508 10509 10507 10507 10507 10506 10505 10504 10503 10501 10499 10497 10495 10494 10493 10491 10490 10487 10485 10482 10478 10475 10472 10468 10465 10462 10459 10456 10454 10452
10435 10438 10441 10445 10448 10451 10453 10456 10459 10462 10464 10466 10469 10471 10474 10477 10479 10480 10481 10483 10484 10485 10485 10486 10486 10487 10487 10488 10488 10489 10490 10491 10492 10493 10495 10496 10496 10497 10497 10498 10499 10500 10500 10500 10501 10501 10502 10502 10502 10501 10502 10502 10499 10495 10496 10499 10499 10498 10497 10497 10496 10495 10494 10492 10491 10489 10486 10484 10482 10480 10478 10476 10474 10471 10468 10465 10462 10459 10456 10453 10451 10448 10446 10444 10441
10427 10429 10432 10435 10439 10442 10445 10448 10451 10454 10457 10459 10461 10464 10466 10469 10471 10472 10474 10475 10476 10477 10478 10478 10479 10479 10480 10480 10480 10481 10482 10483 10484 10485 10486 10487 10487 10488 10488 10489 10490 10491 10491 10492 10492 10493 10493 10493 10493 10493 10494 10494 10491 10488 10487 10488 10488 10488 10487 10486 10485 10484 10483 10482 10481 10479 10477 10474 10471 10468 10466 10464 10461 10459 10457 10453 10451 10448 10445 10442 10440 10438 10436 10433 10431
10418 10421 10423 10426 10430 10433 10436 10439 10442 10445 10448 10451 10453 10456 10458 10461 10463 10464 10465 10467 10468 10469 10469 10470 10470 10471 10471 10472 10472 10473 10474 10475 10476 10477 10478 10478 10479 10479 10480 10481 10481 10482 10482 10483 10483 10484 10484 10484 10483 10484 10485 10485 10483 10480 10479 10478 10477 10477 10476 10475 10474 10474 10472 10471 10470 10468 10467 10464 10461 10457 10455 10452 10449 10447 10445 10442 10440 10437 10434 10432 10429 10426 10424 10421 10419
10409 10412 10415 10418 10420 10423 10426 10430 10433 10435 10439 10442 10445 10447 10450 10452 10454 10455 10456 10458 10459 10459 10460 10460 10461 10462 10463 10463 10464 10465 10466 10467 10468 10468 10469 10470 10470 10470 10471 10472 10472 10473 10473 10474 10474 10474 10474 10474 10474 10474 10474 10474 10473 10472 10471 10469 10468 10467 10466 10465 10464 10463 10462 10460 10458 10456 10454 10452 10449 10446 10443 10440 10437 10435 10433 10431 10428 10426 10423 10420 10417 10414 10411 10408 10405
10400 10403 10405 10408 10411 10414 10417 10420 10422 10425 10428 10431 10435 10438 10441 10443 10445 10446 10447 10448 10449 10449 10450 10450 10451 10452 10453 10454 10455 10456 10457 10458 10459 10460 10460 10460 10461 10462 10462 10463 10463 10464 10464 10464 10464 10465 10464 10465 10465 10464 10464 10463 10463 10461 10460 10459 10458 10456 10455 10454 10453 10451 10450 10448 10446 10444 10442 10440 10437 10435 10432 10429 10427 10424 10422 10420 10417 10415 10413 10409 10406 10402 10398 10394 10392